Time,TemperatureF,DewpointF,PressureIn,WindDirection,WindDirectionDegrees,WindSpeedMPH,WindSpeedGustMPH,Humidity,HourlyPrecipIn,Conditions,Clouds,dailyrainin,SoftwareType,DateUTC
2013-08-15 00:00:00,61.2,55.3,29.94,ESE,113,0.0,3.0,81,0.00,,CLR,0.00,VWS V14.01,2013-08-15 05:00:00,
2013-08-15 00:01:00,61.2,55.3,29.94,ESE,113,0.0,0.0,81,0.00,,CLR,0.00,VWS V14.01,2013-08-15 05:01:00,
2013-08-15 00:07:00,61.2,55.3,29.94,ESE,115,0.0,0.0,81,0.00,,CLR,0.00,VWS V14.01,2013-08-15 05:07:00,
2013-08-15 00:12:00,61.2,55.3,29.94,ESE,108,0.0,0.0,81,0.00,,CLR,0.00,VWS V14.01,2013-08-15 05:12:00,
2013-08-15 00:17:00,61.1,55.6,29.94,ESE,106,0.0,0.0,82,0.00,,CLR,0.00,VWS V14.01,2013-08-15 05:17:00,
2013-08-15 00:22:00,61.0,55.5,29.94,East,82,0.0,1.0,82,0.00,,CLR,0.00,VWS V14.01,2013-08-15 05:22:00,
2013-08-15 00:27:00,60.9,55.7,29.94,East,82,0.0,1.0,83,0.00,,CLR,0.00,VWS V14.01,2013-08-15 05:27:00,
2013-08-15 00:30:00,60.8,55.9,29.93,East,99,0.0,1.0,84,0.00,,CLR,0.00,VWS V14.01,2013-08-15 05:30:00,
2013-08-15 00:32:00,60.7,55.8,29.93,East,100,0.0,1.0,84,0.00,,CLR,0.00,VWS V14.01,2013-08-15 05:32:00,
2013-08-15 00:37:00,60.5,55.7,29.94,East,100,0.0,1.0,84,0.00,,CLR,0.00,VWS V14.01,2013-08-15 05:37:00,
2013-08-15 00:42:00,60.4,55.5,29.94,East,99,0.0,1.0,84,0.00,,CLR,0.00,VWS V14.01,2013-08-15 05:42:00,
2013-08-15 00:47:00,60.2,55.7,29.94,East,99,0.0,1.0,85,0.00,,CLR,0.00,VWS V14.01,2013-08-15 05:47:00,
2013-08-15 00:52:00,60.0,55.2,29.93,East,92,0.0,1.0,84,0.00,,CLR,0.00,VWS V14.01,2013-08-15 05:52:00,
2013-08-15 00:58:00,59.9,55.1,29.93,East,90,0.0,1.0,84,0.00,,CLR,0.00,VWS V14.01,2013-08-15 05:58:00,
2013-08-15 01:00:00,59.9,55.4,29.93,East,90,0.0,1.0,85,0.00,,CLR,0.00,VWS V14.01,2013-08-15 06:00:00,
2013-08-15 01:03:00,59.8,55.3,29.93,East,90,0.0,0.0,85,0.00,,CLR,0.00,VWS V14.01,2013-08-15 06:03:00,
2013-08-15 01:08:00,59.7,55.2,29.93,East,90,0.0,0.0,85,0.00,,CLR,0.00,VWS V14.01,2013-08-15 06:08:00,
2013-08-15 01:13:00,59.6,55.4,29.93,East,90,0.0,0.0,86,0.00,,CLR,0.00,VWS V14.01,2013-08-15 06:13:00,
2013-08-15 01:18:00,59.5,55.0,29.93,East,89,0.0,0.0,85,0.00,,CLR,0.00,VWS V14.01,2013-08-15 06:18:00,
2013-08-15 01:23:00,59.5,55.0,29.94,East,89,0.0,0.0,85,0.00,,CLR,0.00,VWS V14.01,2013-08-15 06:23:00,
2013-08-15 01:28:00,59.4,55.2,29.94,East,90,0.0,0.0,86,0.00,,CLR,0.00,VWS V14.01,2013-08-15 06:28:00,
2013-08-15 01:30:00,59.4,55.2,29.94,East,90,0.0,0.0,86,0.00,,CLR,0.00,VWS V14.01,2013-08-15 06:30:00,
2013-08-15 01:33:00,59.4,55.2,29.94,East,90,0.0,0.0,86,0.00,,CLR,0.00,VWS V14.01,2013-08-15 06:33:00,
2013-08-15 01:39:00,59.3,54.8,29.93,East,90,0.0,0.0,85,0.00,,CLR,0.00,VWS V14.01,2013-08-15 06:39:00,
2013-08-15 01:44:00,59.1,54.6,29.94,East,90,0.0,0.0,85,0.00,,CLR,0.00,VWS V14.01,2013-08-15 06:44:00,
2013-08-15 01:49:00,59.0,54.8,29.94,East,93,0.0,0.0,86,0.00,,CLR,0.00,VWS V14.01,2013-08-15 06:49:00,
2013-08-15 01:54:00,58.9,54.7,29.93,East,93,0.0,0.0,86,0.00,,CLR,0.00,VWS V14.01,2013-08-15 06:54:00,
2013-08-15 01:59:00,58.8,55.0,29.93,East,93,0.0,0.0,87,0.00,,CLR,0.00,VWS V14.01,2013-08-15 06:59:00,
2013-08-15 02:00:00,58.8,54.9,29.93,East,93,0.0,0.0,87,0.00,,CLR,0.00,VWS V14.01,2013-08-15 07:00:00,
2013-08-15 02:04:00,58.7,54.8,29.93,SE,141,0.0,0.0,87,0.00,,CLR,0.00,VWS V14.01,2013-08-15 07:04:00,
2013-08-15 02:09:00,58.6,54.8,29.92,East,95,0.0,0.0,87,0.00,,CLR,0.00,VWS V14.01,2013-08-15 07:09:00,
2013-08-15 02:14:00,58.5,54.7,29.92,East,95,0.0,0.0,87,0.00,,CLR,0.00,VWS V14.01,2013-08-15 07:14:00,
2013-08-15 02:19:00,58.4,54.5,29.93,East,95,0.0,0.0,87,0.00,,CLR,0.00,VWS V14.01,2013-08-15 07:19:00,
2013-08-15 02:25:00,58.3,54.5,29.93,East,95,0.0,0.0,87,0.00,,CLR,0.00,VWS V14.01,2013-08-15 07:25:00,
2013-08-15 02:30:00,58.2,54.4,29.93,East,95,0.0,0.0,87,0.00,,CLR,0.00,VWS V14.01,2013-08-15 07:30:00,
2013-08-15 02:35:00,58.2,54.4,29.93,East,95,0.0,0.0,87,0.00,,CLR,0.00,VWS V14.01,2013-08-15 07:35:00,
2013-08-15 02:40:00,58.1,54.6,29.92,East,95,0.0,0.0,88,0.00,,CLR,0.00,VWS V14.01,2013-08-15 07:40:00,
2013-08-15 02:45:00,58.0,54.5,29.92,East,95,0.0,0.0,88,0.00,,CLR,0.00,VWS V14.01,2013-08-15 07:45:00,
2013-08-15 02:50:00,57.9,54.4,29.92,East,95,0.0,0.0,88,0.00,,CLR,0.00,VWS V14.01,2013-08-15 07:50:00,
2013-08-15 02:55:00,57.9,54.4,29.92,East,95,0.0,0.0,88,0.00,,CLR,0.00,VWS V14.01,2013-08-15 07:55:00,
2013-08-15 03:00:00,57.8,54.6,29.92,East,95,0.0,0.0,89,0.00,,CLR,0.00,VWS V14.01,2013-08-15 08:00:00,
2013-08-15 03:05:00,57.7,54.5,29.92,East,95,0.0,0.0,89,0.00,,CLR,0.00,VWS V14.01,2013-08-15 08:05:00,
2013-08-15 03:10:00,57.6,54.4,29.92,East,95,0.0,0.0,89,0.00,,CLR,0.00,VWS V14.01,2013-08-15 08:10:00,
2013-08-15 03:15:00,57.6,54.4,29.92,East,95,0.0,0.0,89,0.00,,CLR,0.00,VWS V14.01,2013-08-15 08:15:00,
2013-08-15 03:20:00,57.5,54.3,29.92,East,95,0.0,0.0,89,0.00,,CLR,0.00,VWS V14.01,2013-08-15 08:20:00,
2013-08-15 03:26:00,57.4,54.5,29.92,East,95,0.0,0.0,90,0.00,,CLR,0.00,VWS V14.01,2013-08-15 08:26:00,
2013-08-15 03:30:00,57.3,54.4,29.92,East,95,0.0,0.0,90,0.00,,CLR,0.00,VWS V14.01,2013-08-15 08:30:00,
2013-08-15 03:31:00,57.3,54.4,29.92,East,95,0.0,0.0,90,0.00,,CLR,0.00,VWS V14.01,2013-08-15 08:31:00,
2013-08-15 03:36:00,57.2,54.3,29.92,East,95,0.0,0.0,90,0.00,,CLR,0.00,VWS V14.01,2013-08-15 08:36:00,
2013-08-15 03:41:00,57.1,54.2,29.92,East,95,0.0,0.0,90,0.00,,CLR,0.00,VWS V14.01,2013-08-15 08:41:00,
2013-08-15 03:46:00,57.0,54.1,29.92,East,95,0.0,0.0,90,0.00,,CLR,0.00,VWS V14.01,2013-08-15 08:46:00,
2013-08-15 03:51:00,56.9,54.3,29.92,East,95,0.0,0.0,91,0.00,,CLR,0.00,VWS V14.01,2013-08-15 08:51:00,
2013-08-15 03:56:00,56.8,54.2,29.92,East,95,0.0,0.0,91,0.00,,CLR,0.00,VWS V14.01,2013-08-15 08:56:00,
2013-08-15 04:00:00,56.8,54.2,29.92,East,95,0.0,0.0,91,0.00,,CLR,0.00,VWS V14.01,2013-08-15 09:00:00,
2013-08-15 04:01:00,56.8,54.2,29.92,East,95,0.0,0.0,91,0.00,,CLR,0.00,VWS V14.01,2013-08-15 09:01:00,
2013-08-15 04:06:00,56.7,54.1,29.92,East,95,0.0,0.0,91,0.00,,CLR,0.00,VWS V14.01,2013-08-15 09:06:00,
2013-08-15 04:11:00,56.7,54.1,29.92,East,95,0.0,0.0,91,0.00,,CLR,0.00,VWS V14.01,2013-08-15 09:11:00,
2013-08-15 04:16:00,56.6,54.3,29.92,East,95,0.0,0.0,92,0.00,,CLR,0.00,VWS V14.01,2013-08-15 09:16:00,
2013-08-15 04:22:00,56.5,54.2,29.92,East,95,0.0,0.0,92,0.00,,CLR,0.00,VWS V14.01,2013-08-15 09:22:00,
2013-08-15 04:27:00,56.4,54.1,29.92,East,95,0.0,0.0,92,0.00,,CLR,0.00,VWS V14.01,2013-08-15 09:27:00,
2013-08-15 04:30:00,56.4,54.1,29.92,East,95,0.0,0.0,92,0.00,,CLR,0.00,VWS V14.01,2013-08-15 09:30:00,
2013-08-15 04:32:00,56.3,54.0,29.92,East,95,0.0,0.0,92,0.00,,CLR,0.00,VWS V14.01,2013-08-15 09:32:00,
2013-08-15 04:37:00,56.3,54.0,29.92,East,95,0.0,0.0,92,0.00,,CLR,0.00,VWS V14.01,2013-08-15 09:37:00,
2013-08-15 04:42:00,56.2,53.9,29.92,East,95,0.0,0.0,92,0.00,,CLR,0.00,VWS V14.01,2013-08-15 09:42:00,
2013-08-15 04:47:00,56.1,53.8,29.92,East,95,0.0,0.0,92,0.00,,CLR,0.00,VWS V14.01,2013-08-15 09:47:00,
2013-08-15 04:52:00,56.1,53.8,29.93,East,95,0.0,0.0,92,0.00,,CLR,0.00,VWS V14.01,2013-08-15 09:52:00,
2013-08-15 04:57:00,56.0,54.0,29.93,East,95,0.0,0.0,93,0.00,,CLR,0.00,VWS V14.01,2013-08-15 09:57:00,
2013-08-15 05:00:00,55.9,53.9,29.93,East,95,0.0,0.0,93,0.00,,CLR,0.00,VWS V14.01,2013-08-15 10:00:00,
2013-08-15 05:02:00,55.9,53.9,29.93,East,95,0.0,0.0,93,0.00,,CLR,0.00,VWS V14.01,2013-08-15 10:02:00,
2013-08-15 05:07:00,55.8,53.8,29.93,East,95,0.0,0.0,93,0.00,,CLR,0.00,VWS V14.01,2013-08-15 10:07:00,
2013-08-15 05:12:00,55.7,53.7,29.93,East,95,0.0,0.0,93,0.00,,CLR,0.00,VWS V14.01,2013-08-15 10:12:00,
2013-08-15 05:17:00,55.6,53.6,29.93,East,95,0.0,0.0,93,0.00,,CLR,0.00,VWS V14.01,2013-08-15 10:17:00,
2013-08-15 05:23:00,55.5,53.5,29.93,East,95,0.0,0.0,93,0.00,,CLR,0.00,VWS V14.01,2013-08-15 10:23:00,
2013-08-15 05:28:00,55.4,53.4,29.93,East,95,0.0,0.0,93,0.00,,CLR,0.00,VWS V14.01,2013-08-15 10:28:00,
2013-08-15 05:30:00,55.4,53.4,29.94,East,95,0.0,0.0,93,0.00,,CLR,0.00,VWS V14.01,2013-08-15 10:30:00,
2013-08-15 05:33:00,55.4,53.4,29.94,East,95,0.0,0.0,93,0.00,,CLR,0.00,VWS V14.01,2013-08-15 10:33:00,
2013-08-15 05:38:00,55.4,53.4,29.94,ENE,67,0.0,0.0,93,0.00,,CLR,0.00,VWS V14.01,2013-08-15 10:38:00,
2013-08-15 05:43:00,55.3,53.3,29.94,North,355,0.0,1.0,93,0.00,,CLR,0.00,VWS V14.01,2013-08-15 10:43:00,
2013-08-15 05:48:00,55.3,53.3,29.94,NW,320,0.0,1.0,93,0.00,,CLR,0.00,VWS V14.01,2013-08-15 10:48:00,
2013-08-15 05:53:00,55.2,53.2,29.93,NW,320,0.0,1.0,93,0.00,,CLR,0.00,VWS V14.01,2013-08-15 10:53:00,
2013-08-15 05:58:00,55.1,53.1,29.93,NW,320,0.0,1.0,93,0.00,,CLR,0.00,VWS V14.01,2013-08-15 10:58:00,
2013-08-15 06:00:00,55.1,53.1,29.93,NW,320,0.0,1.0,93,0.00,,CLR,0.00,VWS V14.01,2013-08-15 11:00:00,
2013-08-15 06:03:00,55.0,53.0,29.94,NW,320,0.0,0.0,93,0.00,,CLR,0.00,VWS V14.01,2013-08-15 11:03:00,
2013-08-15 06:08:00,55.0,53.0,29.94,NW,320,0.0,0.0,93,0.00,,CLR,0.00,VWS V14.01,2013-08-15 11:08:00,
2013-08-15 06:13:00,55.0,53.0,29.93,NW,320,0.0,0.0,93,0.00,,CLR,0.00,VWS V14.01,2013-08-15 11:13:00,
2013-08-15 06:19:00,54.9,52.9,29.94,NW,320,0.0,0.0,93,0.00,,CLR,0.00,VWS V14.01,2013-08-15 11:19:00,
2013-08-15 06:24:00,54.8,52.8,29.94,NW,320,0.0,0.0,93,0.00,,CLR,0.00,VWS V14.01,2013-08-15 11:24:00,
2013-08-15 06:29:00,54.7,52.7,29.94,NW,320,0.0,0.0,93,0.00,,CLR,0.00,VWS V14.01,2013-08-15 11:29:00,
2013-08-15 06:30:00,54.7,52.7,29.94,NW,320,0.0,0.0,93,0.00,,CLR,0.00,VWS V14.01,2013-08-15 11:30:00,
2013-08-15 06:34:00,54.7,52.7,29.94,NW,320,0.0,0.0,93,0.00,,CLR,0.00,VWS V14.01,2013-08-15 11:34:00,
2013-08-15 06:39:00,54.7,52.7,29.94,NW,315,0.0,1.0,93,0.00,,CLR,0.00,VWS V14.01,2013-08-15 11:39:00,
2013-08-15 06:44:00,54.7,53.0,29.94,NW,315,0.0,1.0,94,0.00,,CLR,0.00,VWS V14.01,2013-08-15 11:44:00,
2013-08-15 06:49:00,54.7,52.7,29.94,NW,315,0.0,1.0,93,0.00,,CLR,0.00,VWS V14.01,2013-08-15 11:49:00,
2013-08-15 06:54:00,54.7,52.7,29.94,NW,315,0.0,1.0,93,0.00,,CLR,0.00,VWS V14.01,2013-08-15 11:54:00,
2013-08-15 06:59:00,54.7,52.7,29.94,NNW,327,0.0,2.0,93,0.00,,CLR,0.00,VWS V14.01,2013-08-15 11:59:00,
2013-08-15 07:00:00,54.7,52.7,29.94,NNW,327,0.0,2.0,93,0.00,,CLR,0.00,VWS V14.01,2013-08-15 12:00:00,
2013-08-15 07:04:00,54.8,52.8,29.94,NW,313,0.0,1.0,93,0.00,,CLR,0.00,VWS V14.01,2013-08-15 12:04:00,
2013-08-15 07:09:00,54.8,52.8,29.95,WNW,303,0.0,2.0,93,0.00,,CLR,0.00,VWS V14.01,2013-08-15 12:09:00,
2013-08-15 07:14:00,54.9,52.9,29.94,WNW,303,0.0,2.0,93,0.00,,CLR,0.00,VWS V14.01,2013-08-15 12:14:00,
2013-08-15 07:20:00,55.0,53.0,29.95,NW,321,1.0,2.0,93,0.00,,CLR,0.00,VWS V14.01,2013-08-15 12:20:00,
2013-08-15 07:25:00,55.2,53.2,29.95,NNW,327,1.0,3.0,93,0.00,,CLR,0.00,VWS V14.01,2013-08-15 12:25:00,
2013-08-15 07:30:00,55.5,53.5,29.95,WNW,298,0.0,0.0,93,0.00,,CLR,0.00,VWS V14.01,2013-08-15 12:30:00,
2013-08-15 07:35:00,55.9,53.9,29.95,NNW,331,0.0,1.0,93,0.00,,CLR,0.00,VWS V14.01,2013-08-15 12:35:00,
2013-08-15 07:40:00,56.5,54.2,29.95,NW,317,2.0,3.0,92,0.00,,CLR,0.00,VWS V14.01,2013-08-15 12:40:00,
2013-08-15 07:45:00,56.9,54.3,29.95,NNW,328,0.0,3.0,91,0.00,,CLR,0.00,VWS V14.01,2013-08-15 12:45:00,
2013-08-15 07:50:00,57.1,54.2,29.95,NNW,337,1.0,3.0,90,0.00,,CLR,0.00,VWS V14.01,2013-08-15 12:50:00,
2013-08-15 07:55:00,57.4,54.5,29.95,NNW,327,0.0,3.0,90,0.00,,CLR,0.00,VWS V14.01,2013-08-15 12:55:00,
2013-08-15 08:00:00,57.7,54.5,29.95,North,5,0.0,3.0,89,0.00,,CLR,0.00,VWS V14.01,2013-08-15 13:00:00,
2013-08-15 08:06:00,57.9,54.4,29.96,NNW,340,1.0,3.0,88,0.00,,CLR,0.00,VWS V14.01,2013-08-15 13:06:00,
2013-08-15 08:11:00,58.1,54.9,29.96,WNW,295,0.0,4.0,89,0.00,,CLR,0.00,VWS V14.01,2013-08-15 13:11:00,
2013-08-15 08:16:00,58.3,55.1,29.96,NE,46,0.0,4.0,89,0.00,,CLR,0.00,VWS V14.01,2013-08-15 13:16:00,
2013-08-15 08:21:00,58.5,55.0,29.96,NW,318,1.0,4.0,88,0.00,,,0.00,VWS V14.01,2013-08-15 13:21:00,
2013-08-15 08:26:00,58.7,55.2,29.96,NE,40,1.0,4.0,88,0.00,,,0.00,VWS V14.01,2013-08-15 13:26:00,
2013-08-15 08:30:00,58.8,54.9,29.96,NW,310,0.0,4.0,87,0.00,,CLR,0.00,VWS V14.01,2013-08-15 13:30:00,
2013-08-15 08:31:00,58.9,55.0,29.96,NW,311,0.0,1.0,87,0.00,,,0.00,VWS V14.01,2013-08-15 13:31:00,
2013-08-15 08:36:00,59.1,54.9,29.96,NE,56,0.0,2.0,86,0.00,,,0.00,VWS V14.01,2013-08-15 13:36:00,
2013-08-15 08:41:00,59.3,54.8,29.96,NE,36,0.0,2.0,85,0.00,,,0.00,VWS V14.01,2013-08-15 13:41:00,
2013-08-15 08:46:00,59.6,55.1,29.96,NNW,336,0.0,2.0,85,0.00,,,0.00,VWS V14.01,2013-08-15 13:46:00,
2013-08-15 08:51:00,59.9,55.4,29.96,NE,36,0.0,2.0,85,0.00,,,0.00,VWS V14.01,2013-08-15 13:51:00,
2013-08-15 08:56:00,60.3,55.1,29.96,NNE,16,0.0,2.0,83,0.00,,,0.00,VWS V14.01,2013-08-15 13:56:00,
2013-08-15 09:00:00,60.4,55.2,29.96,NE,35,0.0,2.0,83,0.00,,CLR,0.00,VWS V14.01,2013-08-15 14:00:00,
2013-08-15 09:02:00,60.5,55.0,29.96,NE,35,0.0,0.0,82,0.00,,,0.00,VWS V14.01,2013-08-15 14:02:00,
2013-08-15 09:07:00,60.9,55.4,29.96,NW,326,0.0,2.0,82,0.00,,,0.00,VWS V14.01,2013-08-15 14:07:00,
2013-08-15 09:12:00,61.1,55.2,29.96,North,351,0.0,3.0,81,0.00,,,0.00,VWS V14.01,2013-08-15 14:12:00,
2013-08-15 09:17:00,61.5,55.6,29.96,North,350,0.0,3.0,81,0.00,,,0.00,VWS V14.01,2013-08-15 14:17:00,
2013-08-15 09:22:00,62.0,55.8,29.96,NNE,30,2.0,3.0,80,0.00,,,0.00,VWS V14.01,2013-08-15 14:22:00,
2013-08-15 09:27:00,62.7,56.1,29.96,NE,54,0.0,3.0,79,0.00,,,0.00,VWS V14.01,2013-08-15 14:27:00,
2013-08-15 09:30:00,63.0,56.4,29.96,NE,51,0.0,3.0,79,0.00,,CLR,0.00,VWS V14.01,2013-08-15 14:30:00,
2013-08-15 09:32:00,63.4,56.8,29.96,NW,315,0.0,2.0,79,0.00,,,0.00,VWS V14.01,2013-08-15 14:32:00,
2013-08-15 09:37:00,64.3,57.0,29.96,ESE,106,0.0,2.0,77,0.00,,,0.00,VWS V14.01,2013-08-15 14:37:00,
2013-08-15 09:42:00,65.1,58.1,29.96,ESE,105,0.0,2.0,78,0.00,,,0.00,VWS V14.01,2013-08-15 14:42:00,
2013-08-15 09:47:00,65.8,57.3,29.96,SE,144,0.0,2.0,74,0.00,,,0.00,VWS V14.01,2013-08-15 14:47:00,
2013-08-15 09:52:00,66.4,57.5,29.96,East,101,0.0,2.0,73,0.00,,,0.00,VWS V14.01,2013-08-15 14:52:00,
2013-08-15 09:57:00,66.8,56.3,29.96,East,96,2.0,2.0,69,0.00,,,0.00,VWS V14.01,2013-08-15 14:57:00,
2013-08-15 10:00:00,67.0,56.5,29.96,ESE,109,0.0,2.0,69,0.00,,CLR,0.00,VWS V14.01,2013-08-15 15:00:00,
2013-08-15 10:03:00,67.3,57.2,29.96,East,80,0.0,2.0,70,0.00,,,0.00,VWS V14.01,2013-08-15 15:03:00,
2013-08-15 10:08:00,67.6,56.3,29.96,NE,53,0.0,3.0,67,0.00,,,0.00,VWS V14.01,2013-08-15 15:08:00,
2013-08-15 10:13:00,67.8,56.9,29.96,NNE,29,0.0,3.0,68,0.00,,,0.00,VWS V14.01,2013-08-15 15:13:00,
2013-08-15 10:18:00,68.3,57.8,29.96,ENE,68,0.0,3.0,69,0.00,,,0.00,VWS V14.01,2013-08-15 15:18:00,
2013-08-15 10:23:00,68.7,58.9,29.96,NW,315,0.0,3.0,71,0.00,,,0.00,VWS V14.01,2013-08-15 15:23:00,
2013-08-15 10:29:00,69.2,57.0,29.95,NE,55,0.0,3.0,65,0.00,,,0.00,VWS V14.01,2013-08-15 15:29:00,
2013-08-15 10:30:00,69.2,57.4,29.95,NE,55,0.0,3.0,66,0.00,,CLR,0.00,VWS V14.01,2013-08-15 15:30:00,
2013-08-15 10:34:00,69.6,57.8,29.96,East,85,0.0,2.0,66,0.00,,,0.00,VWS V14.01,2013-08-15 15:34:00,
2013-08-15 10:39:00,69.8,57.1,29.95,NW,313,0.0,3.0,64,0.00,,,0.00,VWS V14.01,2013-08-15 15:39:00,
2013-08-15 10:44:00,70.2,57.5,29.95,East,85,1.0,3.0,64,0.00,,,0.00,VWS V14.01,2013-08-15 15:44:00,
2013-08-15 10:49:00,70.1,55.1,29.96,NE,53,2.0,5.0,59,0.00,,,0.00,VWS V14.01,2013-08-15 15:49:00,
2013-08-15 10:54:00,70.1,56.0,29.95,NW,321,0.0,5.0,61,0.00,,,0.00,VWS V14.01,2013-08-15 15:54:00,
2013-08-15 10:59:00,70.2,54.8,29.95,NNE,30,1.0,5.0,58,0.00,,,0.00,VWS V14.01,2013-08-15 15:59:00,
2013-08-15 11:00:00,70.2,54.8,29.95,NNE,30,1.0,5.0,58,0.00,,CLR,0.00,VWS V14.01,2013-08-15 16:00:00,
2013-08-15 11:04:00,70.2,55.7,29.95,NW,308,0.0,5.0,60,0.00,,,0.00,VWS V14.01,2013-08-15 16:04:00,
2013-08-15 11:09:00,70.5,56.9,29.95,NW,319,1.0,5.0,62,0.00,,,0.00,VWS V14.01,2013-08-15 16:09:00,
2013-08-15 11:15:00,71.0,56.4,29.95,West,267,0.0,5.0,60,0.00,,,0.00,VWS V14.01,2013-08-15 16:15:00,
2013-08-15 11:21:00,71.4,52.9,29.95,SSE,155,0.0,5.0,52,0.00,,,0.00,VWS V14.01,2013-08-15 16:21:00,
2013-08-15 11:26:00,71.6,56.5,29.94,NW,313,2.0,5.0,59,0.00,,,0.00,VWS V14.01,2013-08-15 16:26:00,
2013-08-15 11:30:00,71.6,55.6,29.94,ESE,113,0.0,5.0,57,0.00,,CLR,0.00,VWS V14.01,2013-08-15 16:30:00,
2013-08-15 11:31:00,71.6,57.5,29.94,NNW,333,2.0,2.0,61,0.00,,,0.00,VWS V14.01,2013-08-15 16:31:00,
2013-08-15 11:36:00,71.4,55.9,29.94,East,98,0.0,3.0,58,0.00,,,0.00,VWS V14.01,2013-08-15 16:36:00,
2013-08-15 11:41:00,71.7,57.5,29.94,ENE,77,2.0,5.0,61,0.00,,,0.00,VWS V14.01,2013-08-15 16:41:00,
2013-08-15 11:46:00,71.7,55.2,29.94,ENE,74,2.0,6.0,56,0.00,,,0.00,VWS V14.01,2013-08-15 16:46:00,
2013-08-15 11:52:00,71.9,56.3,29.93,ESE,112,2.0,6.0,58,0.00,,,0.00,VWS V14.01,2013-08-15 16:52:00,
2013-08-15 11:57:00,72.1,55.1,29.94,NNE,28,0.0,6.0,55,0.00,,,0.00,VWS V14.01,2013-08-15 16:57:00,
2013-08-15 12:00:00,72.3,55.7,29.93,NW,305,3.0,6.0,56,0.00,,CLR,0.00,VWS V14.01,2013-08-15 17:00:00,
2013-08-15 12:02:00,72.1,54.6,29.93,West,275,0.0,4.0,54,0.00,,,0.00,VWS V14.01,2013-08-15 17:02:00,
2013-08-15 12:07:00,71.5,55.5,29.93,North,360,0.0,4.0,57,0.00,,,0.00,VWS V14.01,2013-08-15 17:07:00,
2013-08-15 12:12:00,71.3,55.8,29.93,NNW,339,1.0,4.0,58,0.00,,,0.00,VWS V14.01,2013-08-15 17:12:00,
2013-08-15 12:17:00,71.0,58.2,29.93,NW,317,0.0,4.0,64,0.00,,,0.00,VWS V14.01,2013-08-15 17:17:00,
2013-08-15 12:22:00,71.6,57.0,29.93,SSE,157,0.0,4.0,60,0.00,,,0.00,VWS V14.01,2013-08-15 17:22:00,
2013-08-15 12:27:00,71.7,56.2,29.92,ENE,74,0.0,4.0,58,0.00,,,0.00,VWS V14.01,2013-08-15 17:27:00,
2013-08-15 12:30:00,71.8,57.2,29.92,NW,321,1.0,4.0,60,0.00,,CLR,0.00,VWS V14.01,2013-08-15 17:30:00,
2013-08-15 12:32:00,71.8,54.8,29.92,NNW,329,1.0,4.0,55,0.00,,,0.00,VWS V14.01,2013-08-15 17:32:00,
2013-08-15 12:37:00,72.0,56.4,29.92,East,97,1.0,4.0,58,0.00,,,0.00,VWS V14.01,2013-08-15 17:37:00,
2013-08-15 12:42:00,72.3,55.7,29.92,NNW,337,3.0,5.0,56,0.00,,,0.00,VWS V14.01,2013-08-15 17:42:00,
2013-08-15 12:48:00,72.6,55.0,29.92,NNE,25,0.0,5.0,54,0.00,,,0.00,VWS V14.01,2013-08-15 17:48:00,
2013-08-15 12:53:00,72.5,55.4,29.92,NW,324,5.0,5.0,55,0.00,,,0.00,VWS V14.01,2013-08-15 17:53:00,
2013-08-15 12:58:00,72.4,56.3,29.92,NNE,28,2.0,5.0,57,0.00,,,0.00,VWS V14.01,2013-08-15 17:58:00,
2013-08-15 13:00:00,72.4,55.3,29.92,NNW,329,1.0,5.0,55,0.00,,CLR,0.00,VWS V14.01,2013-08-15 18:00:00,
2013-08-15 13:03:00,72.2,56.6,29.92,ENE,65,1.0,3.0,58,0.00,,,0.00,VWS V14.01,2013-08-15 18:03:00,
2013-08-15 13:08:00,72.3,55.2,29.92,NW,312,0.0,3.0,55,0.00,,,0.00,VWS V14.01,2013-08-15 18:08:00,
2013-08-15 13:13:00,72.5,56.9,29.92,ESE,119,0.0,5.0,58,0.00,,,0.00,VWS V14.01,2013-08-15 18:13:00,
2013-08-15 13:18:00,72.7,57.1,29.91,NE,39,0.0,5.0,58,0.00,,,0.00,VWS V14.01,2013-08-15 18:18:00,
2013-08-15 13:24:00,72.8,55.2,29.91,NW,317,0.0,5.0,54,0.00,,,0.00,VWS V14.01,2013-08-15 18:24:00,
2013-08-15 13:29:00,73.1,56.0,29.91,SSE,166,0.0,5.0,55,0.00,,,0.00,VWS V14.01,2013-08-15 18:29:00,
2013-08-15 13:30:00,73.1,56.0,29.91,SSE,166,0.0,5.0,55,0.00,,CLR,0.00,VWS V14.01,2013-08-15 18:30:00,
2013-08-15 13:34:00,73.3,56.7,29.91,ENE,66,3.0,4.0,56,0.00,,,0.00,VWS V14.01,2013-08-15 18:34:00,
2013-08-15 13:39:00,73.3,57.2,29.91,ESE,103,0.0,4.0,57,0.00,,,0.00,VWS V14.01,2013-08-15 18:39:00,
2013-08-15 13:44:00,73.5,57.8,29.91,WNW,300,1.0,8.0,58,0.00,,,0.00,VWS V14.01,2013-08-15 18:44:00,
2013-08-15 13:49:00,73.1,56.0,29.91,ENE,75,0.0,8.0,55,0.00,,,0.00,VWS V14.01,2013-08-15 18:49:00,
2013-08-15 13:54:00,72.5,56.9,29.91,NW,310,0.0,8.0,58,0.00,,,0.00,VWS V14.01,2013-08-15 18:54:00,
2013-08-15 13:59:00,72.1,54.0,29.91,NNE,32,1.0,8.0,53,0.00,,,0.00,VWS V14.01,2013-08-15 18:59:00,
2013-08-15 14:00:00,72.1,54.6,29.91,North,5,1.0,8.0,54,0.00,,CLR,0.00,VWS V14.01,2013-08-15 19:00:00,
2013-08-15 14:05:00,72.1,57.5,29.91,ESE,102,2.0,4.0,60,0.00,,,0.00,VWS V14.01,2013-08-15 19:05:00,
2013-08-15 14:10:00,72.3,56.7,29.91,East,93,3.0,4.0,58,0.00,,,0.00,VWS V14.01,2013-08-15 19:10:00,
2013-08-15 14:15:00,72.4,54.3,29.90,SW,215,0.0,4.0,53,0.00,,,0.00,VWS V14.01,2013-08-15 19:15:00,
2013-08-15 14:20:00,72.2,55.2,29.90,North,360,0.0,4.0,55,0.00,,,0.00,VWS V14.01,2013-08-15 19:20:00,
2013-08-15 14:25:00,72.4,55.8,29.90,East,101,0.0,4.0,56,0.00,,,0.00,VWS V14.01,2013-08-15 19:25:00,
2013-08-15 14:30:00,72.7,56.1,29.90,North,355,0.0,5.0,56,0.00,,CLR,0.00,VWS V14.01,2013-08-15 19:30:00,
2013-08-15 14:31:00,72.8,57.2,29.90,NNE,32,0.0,3.0,58,0.00,,,0.00,VWS V14.01,2013-08-15 19:31:00,
2013-08-15 14:36:00,72.9,56.3,29.90,NE,36,2.0,4.0,56,0.00,,,0.00,VWS V14.01,2013-08-15 19:36:00,
2013-08-15 14:41:00,72.9,56.8,29.90,SE,140,0.0,5.0,57,0.00,,,0.00,VWS V14.01,2013-08-15 19:41:00,
2013-08-15 14:46:00,72.9,55.3,29.90,East,88,5.0,5.0,54,0.00,,,0.00,VWS V14.01,2013-08-15 19:46:00,
2013-08-15 14:51:00,72.8,55.7,29.90,East,94,2.0,6.0,55,0.00,,,0.00,VWS V14.01,2013-08-15 19:51:00,
2013-08-15 14:56:00,72.6,55.0,29.90,East,96,0.0,6.0,54,0.00,,,0.00,VWS V14.01,2013-08-15 19:56:00,
2013-08-15 15:00:00,72.4,54.8,29.89,SSW,207,1.0,6.0,54,0.00,,CLR,0.00,VWS V14.01,2013-08-15 20:00:00,
2013-08-15 15:03:00,72.3,55.7,29.89,NW,320,0.0,2.0,56,0.00,,,0.00,VWS V14.01,2013-08-15 20:03:00,
2013-08-15 15:08:00,72.4,56.3,29.89,East,101,5.0,5.0,57,0.00,,,0.00,VWS V14.01,2013-08-15 20:08:00,
2013-08-15 15:13:00,72.7,56.6,29.89,SE,127,0.0,5.0,57,0.00,,,0.00,VWS V14.01,2013-08-15 20:13:00,
2013-08-15 15:18:00,72.9,55.8,29.89,WNW,300,0.0,5.0,55,0.00,,,0.00,VWS V14.01,2013-08-15 20:18:00,
2013-08-15 15:24:00,73.1,55.5,29.89,NNE,19,4.0,5.0,54,0.00,,,0.00,VWS V14.01,2013-08-15 20:24:00,
2013-08-15 15:29:00,73.1,56.0,29.89,SE,140,2.0,5.0,55,0.00,,,0.00,VWS V14.01,2013-08-15 20:29:00,
2013-08-15 15:30:00,73.1,56.0,29.89,SE,131,0.0,5.0,55,0.00,,CLR,0.00,VWS V14.01,2013-08-15 20:30:00,
2013-08-15 15:34:00,73.1,56.0,29.89,NW,315,0.0,3.0,55,0.00,,,0.00,VWS V14.01,2013-08-15 20:34:00,
2013-08-15 15:39:00,73.1,55.5,29.88,NNW,331,2.0,4.0,54,0.00,,,0.00,VWS V14.01,2013-08-15 20:39:00,
2013-08-15 15:44:00,73.0,55.4,29.88,WNW,284,1.0,4.0,54,0.00,,,0.00,VWS V14.01,2013-08-15 20:44:00,
2013-08-15 15:50:00,73.1,57.5,29.88,NE,49,2.0,5.0,58,0.00,,,0.00,VWS V14.01,2013-08-15 20:50:00,
2013-08-15 15:55:00,73.1,56.0,29.88,East,83,0.0,5.0,55,0.00,,,0.00,VWS V14.01,2013-08-15 20:55:00,
2013-08-15 16:00:00,72.9,56.8,29.88,ESE,107,2.0,4.0,57,0.00,,,0.00,VWS V14.01,2013-08-15 21:00:00,
2013-08-15 16:05:00,72.6,56.0,29.88,ESE,120,0.0,5.0,56,0.00,,,0.00,VWS V14.01,2013-08-15 21:05:00,
2013-08-15 16:10:00,72.7,55.6,29.88,North,355,0.0,5.0,55,0.00,,,0.00,VWS V14.01,2013-08-15 21:10:00,
2013-08-15 16:15:00,72.9,56.3,29.88,NE,53,0.0,5.0,56,0.00,,,0.00,VWS V14.01,2013-08-15 21:15:00,
2013-08-15 16:20:00,73.1,56.5,29.88,ESE,103,0.0,6.0,56,0.00,,,0.00,VWS V14.01,2013-08-15 21:20:00,
2013-08-15 16:26:00,73.2,56.1,29.87,ENE,69,1.0,6.0,55,0.00,,,0.00,VWS V14.01,2013-08-15 21:26:00,
2013-08-15 16:30:00,73.3,56.7,29.87,East,101,1.0,6.0,56,0.00,,CLR,0.00,VWS V14.01,2013-08-15 21:30:00,
2013-08-15 16:32:00,73.5,57.8,29.87,ENE,62,0.0,2.0,58,0.00,,,0.00,VWS V14.01,2013-08-15 21:32:00,
2013-08-15 16:37:00,73.6,56.0,29.87,NNE,13,0.0,4.0,54,0.00,,,0.00,VWS V14.01,2013-08-15 21:37:00,
2013-08-15 16:43:00,73.1,57.0,29.87,ESE,105,0.0,4.0,57,0.00,,,0.00,VWS V14.01,2013-08-15 21:43:00,
2013-08-15 16:48:00,72.9,56.8,29.87,West,269,0.0,4.0,57,0.00,,,0.00,VWS V14.01,2013-08-15 21:48:00,
2013-08-15 16:53:00,72.7,56.1,29.87,ESE,117,0.0,4.0,56,0.00,,,0.00,VWS V14.01,2013-08-15 21:53:00,
2013-08-15 16:58:00,72.7,56.6,29.87,North,355,0.0,4.0,57,0.00,,,0.00,VWS V14.01,2013-08-15 21:58:00,
2013-08-15 17:00:00,72.7,56.1,29.87,North,9,0.0,4.0,56,0.00,,CLR,0.00,VWS V14.01,2013-08-15 22:00:00,
2013-08-15 17:03:00,72.7,55.6,29.87,South,175,0.0,1.0,55,0.00,,,0.00,VWS V14.01,2013-08-15 22:03:00,
2013-08-15 17:08:00,72.7,56.1,29.87,NE,38,1.0,2.0,56,0.00,,,0.00,VWS V14.01,2013-08-15 22:08:00,
2013-08-15 17:13:00,72.7,56.6,29.87,West,263,0.0,3.0,57,0.00,,,0.00,VWS V14.01,2013-08-15 22:13:00,
2013-08-15 17:18:00,72.4,55.8,29.87,NW,306,0.0,3.0,56,0.00,,,0.00,VWS V14.01,2013-08-15 22:18:00,
2013-08-15 17:23:00,72.1,56.0,29.87,WNW,292,1.0,3.0,57,0.00,,,0.00,VWS V14.01,2013-08-15 22:23:00,
2013-08-15 17:29:00,71.7,54.7,29.87,NE,39,0.0,3.0,55,0.00,,,0.00,VWS V14.01,2013-08-15 22:29:00,
2013-08-15 17:30:00,71.7,54.7,29.87,NNW,338,0.0,3.0,55,0.00,,CLR,0.00,VWS V14.01,2013-08-15 22:30:00,
2013-08-15 17:34:00,71.5,56.0,29.87,NW,316,0.0,5.0,58,0.00,,,0.00,VWS V14.01,2013-08-15 22:34:00,
2013-08-15 17:39:00,71.5,54.5,29.87,NNW,327,1.0,5.0,55,0.00,,,0.00,VWS V14.01,2013-08-15 22:39:00,
2013-08-15 17:44:00,71.6,56.1,29.87,NE,40,0.0,5.0,58,0.00,,,0.00,VWS V14.01,2013-08-15 22:44:00,
2013-08-15 17:49:00,71.7,55.2,29.87,ENE,78,2.0,5.0,56,0.00,,,0.00,VWS V14.01,2013-08-15 22:49:00,
2013-08-15 17:54:00,71.7,54.7,29.87,East,93,3.0,5.0,55,0.00,,,0.00,VWS V14.01,2013-08-15 22:54:00,
2013-08-15 17:59:00,71.7,55.7,29.87,ENE,57,0.0,5.0,57,0.00,,,0.00,VWS V14.01,2013-08-15 22:59:00,
2013-08-15 18:00:00,71.7,56.2,29.87,ENE,57,0.0,5.0,58,0.00,,CLR,0.00,VWS V14.01,2013-08-15 23:00:00,
2013-08-15 18:04:00,71.7,56.6,29.87,WNW,286,0.0,3.0,59,0.00,,,0.00,VWS V14.01,2013-08-15 23:04:00,
2013-08-15 18:09:00,71.7,56.2,29.87,North,355,0.0,3.0,58,0.00,,,0.00,VWS V14.01,2013-08-15 23:09:00,
2013-08-15 18:14:00,71.7,56.2,29.87,ESE,115,0.0,3.0,58,0.00,,,0.00,VWS V14.01,2013-08-15 23:14:00,
2013-08-15 18:19:00,71.7,56.2,29.87,ENE,57,0.0,3.0,58,0.00,,,0.00,VWS V14.01,2013-08-15 23:19:00,
2013-08-15 18:24:00,71.7,56.2,29.87,NE,38,0.0,3.0,58,0.00,,,0.00,VWS V14.01,2013-08-15 23:24:00,
2013-08-15 18:30:00,71.5,56.0,29.86,East,84,1.0,1.0,58,0.00,,,0.00,VWS V14.01,2013-08-15 23:30:00,
2013-08-15 18:35:00,71.4,55.9,29.86,ENE,69,0.0,3.0,58,0.00,,,0.00,VWS V14.01,2013-08-15 23:35:00,
2013-08-15 18:40:00,71.3,57.2,29.86,ENE,59,0.0,3.0,61,0.00,,,0.00,VWS V14.01,2013-08-15 23:40:00,
2013-08-15 18:45:00,71.1,57.4,29.86,ENE,59,0.0,3.0,62,0.00,,,0.00,VWS V14.01,2013-08-15 23:45:00,
2013-08-15 18:50:00,70.8,57.2,29.86,ESE,117,0.0,3.0,62,0.00,,,0.00,VWS V14.01,2013-08-15 23:50:00,
2013-08-15 18:55:00,70.6,57.4,29.86,NE,54,1.0,3.0,63,0.00,,,0.00,VWS V14.01,2013-08-15 23:55:00,
2013-08-15 19:00:00,70.4,56.3,29.86,ENE,69,0.0,0.0,61,0.00,,,0.00,VWS V14.01,2013-08-16 00:00:00,
2013-08-15 19:06:00,70.2,57.0,29.86,East,84,0.0,1.0,63,0.00,,,0.00,VWS V14.01,2013-08-16 00:06:00,
2013-08-15 19:11:00,70.0,56.8,29.86,ESE,105,0.0,2.0,63,0.00,,,0.00,VWS V14.01,2013-08-16 00:11:00,
2013-08-15 19:16:00,69.7,57.8,29.86,ESE,105,0.0,2.0,66,0.00,,,0.00,VWS V14.01,2013-08-16 00:16:00,
2013-08-15 19:21:00,69.5,58.1,29.86,East,86,0.0,2.0,67,0.00,,,0.00,VWS V14.01,2013-08-16 00:21:00,
2013-08-15 19:26:00,69.1,56.8,29.86,East,86,0.0,2.0,65,0.00,,,0.00,VWS V14.01,2013-08-16 00:26:00,
2013-08-15 19:30:00,68.9,57.9,29.86,East,86,0.0,2.0,68,0.00,,CLR,0.00,VWS V14.01,2013-08-16 00:30:00,
2013-08-15 19:31:00,68.8,57.8,29.86,East,86,0.0,0.0,68,0.00,,,0.00,VWS V14.01,2013-08-16 00:31:00,
2013-08-15 19:37:00,68.5,57.1,29.86,East,86,0.0,0.0,67,0.00,,,0.00,VWS V14.01,2013-08-16 00:37:00,
2013-08-15 19:42:00,68.2,58.0,29.86,East,86,0.0,0.0,70,0.00,,,0.00,VWS V14.01,2013-08-16 00:42:00,
2013-08-15 19:47:00,67.9,57.4,29.86,East,86,0.0,0.0,69,0.00,,,0.00,VWS V14.01,2013-08-16 00:47:00,
2013-08-15 19:52:00,67.7,58.4,29.86,East,86,0.0,0.0,72,0.00,,,0.00,VWS V14.01,2013-08-16 00:52:00,
2013-08-15 19:57:00,67.4,57.7,29.86,East,86,0.0,0.0,71,0.00,,,0.00,VWS V14.01,2013-08-16 00:57:00,
2013-08-15 20:00:00,67.3,58.0,29.86,East,86,0.0,0.0,72,0.00,,CLR,0.00,VWS V14.01,2013-08-16 01:00:00,
2013-08-15 20:02:00,67.2,57.9,29.86,East,86,0.0,0.0,72,0.00,,,0.00,VWS V14.01,2013-08-16 01:02:00,
2013-08-15 20:07:00,66.9,58.3,29.86,East,86,0.0,0.0,74,0.00,,,0.00,VWS V14.01,2013-08-16 01:07:00,
2013-08-15 20:13:00,66.6,57.7,29.86,East,86,0.0,0.0,73,0.00,,,0.00,VWS V14.01,2013-08-16 01:13:00,
2013-08-15 20:18:00,66.4,57.9,29.86,East,86,0.0,0.0,74,0.00,,,0.00,VWS V14.01,2013-08-16 01:18:00,
2013-08-15 20:23:00,66.2,58.0,29.86,East,86,0.0,0.0,75,0.00,,,0.00,VWS V14.01,2013-08-16 01:23:00,
2013-08-15 20:28:00,66.0,57.5,29.86,East,86,0.0,0.0,74,0.00,,,0.00,VWS V14.01,2013-08-16 01:28:00,
2013-08-15 20:30:00,65.9,57.4,29.86,East,86,0.0,0.0,74,0.00,,CLR,0.00,VWS V14.01,2013-08-16 01:30:00,
2013-08-15 20:34:00,65.7,57.2,29.87,East,86,0.0,0.0,74,0.00,,,0.00,VWS V14.01,2013-08-16 01:34:00,
2013-08-15 20:40:00,65.6,57.8,29.87,East,86,0.0,0.0,76,0.00,,,0.00,VWS V14.01,2013-08-16 01:40:00,
2013-08-15 20:45:00,65.3,57.5,29.87,East,86,0.0,0.0,76,0.00,,,0.00,VWS V14.01,2013-08-16 01:45:00,
2013-08-15 20:50:00,65.2,57.5,29.88,East,86,0.0,0.0,76,0.00,,,0.00,VWS V14.01,2013-08-16 01:50:00,
2013-08-15 20:55:00,65.1,57.7,29.88,East,86,0.0,0.0,77,0.00,,,0.00,VWS V14.01,2013-08-16 01:55:00,
2013-08-15 21:00:00,65.0,57.6,29.88,East,86,0.0,0.0,77,0.00,,CLR,0.00,VWS V14.01,2013-08-16 02:00:00,
2013-08-15 21:01:00,65.0,57.3,29.88,East,86,0.0,0.0,76,0.00,,,0.00,VWS V14.01,2013-08-16 02:01:00,
2013-08-15 21:06:00,64.9,57.5,29.88,East,86,0.0,0.0,77,0.00,,,0.00,VWS V14.01,2013-08-16 02:06:00,
2013-08-15 21:11:00,64.8,57.4,29.89,East,86,0.0,0.0,77,0.00,,,0.00,VWS V14.01,2013-08-16 02:11:00,
2013-08-15 21:16:00,64.8,57.8,29.89,East,86,0.0,0.0,78,0.00,,,0.00,VWS V14.01,2013-08-16 02:16:00,
2013-08-15 21:21:00,64.7,58.0,29.89,East,86,0.0,0.0,79,0.00,,,0.00,VWS V14.01,2013-08-16 02:21:00,
2013-08-15 21:26:00,64.5,58.2,29.89,East,86,0.0,0.0,80,0.00,,,0.00,VWS V14.01,2013-08-16 02:26:00,
2013-08-15 21:30:00,64.4,58.1,29.89,East,86,0.0,0.0,80,0.00,,CLR,0.00,VWS V14.01,2013-08-16 02:30:00,
2013-08-15 21:31:00,64.4,58.1,29.89,East,86,0.0,0.0,80,0.00,,,0.00,VWS V14.01,2013-08-16 02:31:00,
2013-08-15 21:36:00,64.3,57.7,29.90,East,86,0.0,0.0,79,0.00,,,0.00,VWS V14.01,2013-08-16 02:36:00,
2013-08-15 21:41:00,64.1,57.8,29.90,East,86,0.0,0.0,80,0.00,,CLR,0.00,VWS V14.01,2013-08-16 02:41:00,
2013-08-15 21:46:00,64.0,58.1,29.90,East,86,0.0,0.0,81,0.00,,CLR,0.00,VWS V14.01,2013-08-16 02:46:00,
2013-08-15 21:51:00,63.9,58.0,29.90,East,86,0.0,0.0,81,0.00,,CLR,0.00,VWS V14.01,2013-08-16 02:51:00,
2013-08-15 21:56:00,63.7,57.4,29.90,East,86,0.0,0.0,80,0.00,,CLR,0.00,VWS V14.01,2013-08-16 02:56:00,
2013-08-15 22:00:00,63.6,57.7,29.90,East,86,0.0,0.0,81,0.00,,CLR,0.00,VWS V14.01,2013-08-16 03:00:00,
2013-08-15 22:02:00,63.5,57.6,29.90,East,86,0.0,0.0,81,0.00,,CLR,0.00,VWS V14.01,2013-08-16 03:02:00,
2013-08-15 22:07:00,63.4,57.5,29.90,East,86,0.0,0.0,81,0.00,,CLR,0.00,VWS V14.01,2013-08-16 03:07:00,
2013-08-15 22:12:00,63.3,57.7,29.90,East,86,0.0,0.0,82,0.00,,CLR,0.00,VWS V14.01,2013-08-16 03:12:00,
2013-08-15 22:17:00,63.2,57.6,29.89,East,86,0.0,0.0,82,0.00,,CLR,0.00,VWS V14.01,2013-08-16 03:17:00,
2013-08-15 22:22:00,63.1,58.2,29.89,East,86,0.0,0.0,84,0.00,,CLR,0.00,VWS V14.01,2013-08-16 03:22:00,
2013-08-15 22:27:00,62.9,58.0,29.89,East,86,0.0,0.0,84,0.00,,CLR,0.00,VWS V14.01,2013-08-16 03:27:00,
2013-08-15 22:30:00,62.8,57.9,29.89,East,86,0.0,0.0,84,0.00,,CLR,0.00,VWS V14.01,2013-08-16 03:30:00,
2013-08-15 22:32:00,62.7,57.8,29.89,East,86,0.0,0.0,84,0.00,,CLR,0.00,VWS V14.01,2013-08-16 03:32:00,
2013-08-15 22:37:00,62.6,57.7,29.89,East,86,0.0,0.0,84,0.00,,CLR,0.00,VWS V14.01,2013-08-16 03:37:00,
2013-08-15 22:42:00,62.5,57.9,29.89,East,86,0.0,0.0,85,0.00,,CLR,0.00,VWS V14.01,2013-08-16 03:42:00,
2013-08-15 22:47:00,62.3,57.7,29.89,East,86,0.0,0.0,85,0.00,,CLR,0.00,VWS V14.01,2013-08-16 03:47:00,
2013-08-15 22:52:00,62.3,57.7,29.89,East,86,0.0,0.0,85,0.00,,CLR,0.00,VWS V14.01,2013-08-16 03:52:00,
2013-08-15 22:58:00,62.2,58.0,29.89,East,86,0.0,0.0,86,0.00,,CLR,0.00,VWS V14.01,2013-08-16 03:58:00,
2013-08-15 23:00:00,62.2,58.0,29.89,East,86,0.0,0.0,86,0.00,,CLR,0.00,VWS V14.01,2013-08-16 04:00:00,
2013-08-15 23:01:00,62.2,58.0,29.89,East,86,0.0,0.0,86,0.00,,CLR,0.00,VWS V14.01,2013-08-16 04:01:00,
2013-08-15 23:02:00,62.2,58.0,29.89,East,86,0.0,0.0,86,0.00,,CLR,0.00,VWS V14.01,2013-08-16 04:02:00,
2013-08-15 23:07:00,62.2,58.0,29.88,East,86,0.0,0.0,86,0.00,,CLR,0.00,VWS V14.01,2013-08-16 04:07:00,
2013-08-15 23:12:00,62.2,58.0,29.88,East,86,0.0,0.0,86,0.00,,CLR,0.00,VWS V14.01,2013-08-16 04:12:00,
2013-08-15 23:17:00,62.1,57.9,29.88,East,86,0.0,0.0,86,0.00,,CLR,0.00,VWS V14.01,2013-08-16 04:17:00,
2013-08-15 23:22:00,62.0,58.1,29.88,East,86,0.0,0.0,87,0.00,,CLR,0.00,VWS V14.01,2013-08-16 04:22:00,
2013-08-15 23:28:00,61.9,58.0,29.88,East,86,0.0,0.0,87,0.00,,CLR,0.00,VWS V14.01,2013-08-16 04:28:00,
2013-08-15 23:30:00,61.8,57.9,29.88,East,86,0.0,0.0,87,0.00,,CLR,0.00,VWS V14.01,2013-08-16 04:30:00,
2013-08-15 23:33:00,61.7,57.8,29.88,East,86,0.0,0.0,87,0.00,,CLR,0.00,VWS V14.01,2013-08-16 04:33:00,
2013-08-15 23:38:00,61.6,58.0,29.88,East,86,0.0,0.0,88,0.00,,CLR,0.00,VWS V14.01,2013-08-16 04:38:00,
2013-08-15 23:43:00,61.5,57.9,29.88,East,86,0.0,0.0,88,0.00,,CLR,0.00,VWS V14.01,2013-08-16 04:43:00,
2013-08-15 23:48:00,61.4,57.8,29.88,East,86,0.0,0.0,88,0.00,,CLR,0.00,VWS V14.01,2013-08-16 04:48:00,
2013-08-15 23:53:00,61.4,58.1,29.88,East,86,0.0,0.0,89,0.00,,CLR,0.00,VWS V14.01,2013-08-16 04:53:00,
2013-08-15 23:58:00,61.3,58.0,29.88,East,86,0.0,0.0,89,0.00,,CLR,0.00,VWS V14.01,2013-08-16 04:58:00,